PROFILE

 METAR AND TAF INFORMATION
ADDS - METARS form results

(0754 UTC 25 January 2022)
http://aviationweather.gov/metar/data/
 
LIPH 250720Z 27002KT 9999 BKN020 04/M00 Q1034
TAF LIPH 250500Z 2506/2606 VRB05KT 8000 OVC030 PROB30 TEMPO 2520/2606 2000 BR BKN003 

 AIRPORT MAP

 RUNWAY INFORMATION
Runway 07 Runway length 7941 ft Runway width 144 ft
Runway elevation 56 ft Runway displaced threshold 254 ft Runway heading 69
Runway 25 Runway length 7941 ft Runway width 144 ft
Runway elevation 51 ft Runway displaced threshold 389 ft Runway heading 249

 AIRPORT FREQUENCIES
Type APP Name APP Frequency 36.23 MHZ
Type APP Name APP Frequency 120.4 MHZ
Type GND Name GND Frequency 27.917 MHZ
Type INFO Name PADOVA INF Frequency 124.15 MHZ
Type TWR Name TWR Frequency 118.7 MHZ

 AIRPORT NEAR NAVIGATION AIDS
Type NDB Name Treviso Frequency 302 KHZ